When you browse on this site, cookies collect data to enhance your experience and personalize the content and advertising you see.
Visit our Privacy Policy to learn more. By continuing to use the site, you agree to this use of cookies and data.
  • En España
  • Lista de países
  • Para 7 días
  • Temperatura del agua
  • El tiempo en el mapa
  • Informadores
  • user-avatar
    Iniciar sesión

    Tiempo cada hora Exeter

    Hoy, 23 Septiembre, Lunes

    Tiempo Temperatura Precipitaciones Viento Presión Humedad
    00:00 +12°C° 0 mm 5 mps 748 mmHg 93%
    01:00 +12°C° 0 mm 5 mps 748 mmHg 93%
    02:00 +11°C° 0 mm 4 mps 748 mmHg 94%
    03:00 +11°C° 0 mm 4 mps 749 mmHg 94%
    04:00 +11°C° 0 mm 4 mps 749 mmHg 94%
    05:00 +11°C° 0 mm 3 mps 749 mmHg 94%
    06:00 +11°C° 0 mm 3 mps 749 mmHg 94%
    07:00 +12°C° 0 mm 4 mps 749 mmHg 91%
    08:00 +14°C° 0 mm 5 mps 749 mmHg 88%
    09:00 +15°C° 0 mm 6 mps 750 mmHg 85%
    10:00 +16°C° 0.2 mm 7 mps 749 mmHg 84%
    11:00 +16°C° 0.2 mm 7 mps 749 mmHg 83%
    12:00 +16°C° 0.2 mm 8 mps 749 mmHg 82%
    13:00 +15°C° 1.3 mm 9 mps 748 mmHg 86%
    14:00 +15°C° 1.3 mm 9 mps 748 mmHg 91%
    15:00 +14°C° 1.3 mm 10 mps 747 mmHg 95%
    16:00 +15°C° 0.6 mm 8 mps 747 mmHg 95%
    17:00 +15°C° 0.6 mm 7 mps 747 mmHg 96%
    18:00 +16°C° 0.6 mm 6 mps 747 mmHg 96%
    19:00 +16°C° 0.1 mm 6 mps 747 mmHg 96%
    20:00 +16°C° 0.1 mm 5 mps 747 mmHg 96%
    21:00 +16°C° 0.1 mm 5 mps 747 mmHg 96%
    22:00 +16°C° 0.1 mm 5 mps 746 mmHg 97%
    23:00 +16°C° 0.1 mm 5 mps 746 mmHg 97%

    Mañana, 24 Septiembre, Martes

    Tiempo Temperatura Precipitaciones Viento Presión Humedad
    00:00 +16°C° 0.1 mm 6 mps 745 mmHg 97%
    01:00 +16°C° 0.6 mm 6 mps 745 mmHg 97%
    02:00 +16°C° 0.6 mm 6 mps 744 mmHg 97%
    03:00 +16°C° 0.6 mm 6 mps 743 mmHg 97%
    04:00 +16°C° 2.8 mm 6 mps 743 mmHg 96%
    05:00 +15°C° 2.8 mm 6 mps 742 mmHg 96%
    06:00 +15°C° 2.8 mm 6 mps 742 mmHg 95%
    07:00 +15°C° 0.5 mm 6 mps 742 mmHg 92%
    08:00 +16°C° 0.5 mm 6 mps 742 mmHg 89%
    09:00 +16°C° 0.5 mm 6 mps 742 mmHg 86%
    10:00 +16°C° 0.1 mm 7 mps 743 mmHg 81%
    11:00 +17°C° 0.1 mm 7 mps 743 mmHg 77%
    12:00 +17°C° 0.1 mm 7 mps 743 mmHg 72%
    13:00 +16°C° 0.2 mm 7 mps 744 mmHg 75%
    14:00 +16°C° 0.2 mm 7 mps 744 mmHg 78%
    15:00 +15°C° 0.2 mm 7 mps 744 mmHg 81%
    16:00 +15°C° 0.1 mm 7 mps 744 mmHg 83%
    17:00 +14°C° 0.1 mm 6 mps 743 mmHg 84%
    18:00 +14°C° 0.1 mm 6 mps 743 mmHg 86%
    19:00 +14°C° 0.3 mm 7 mps 743 mmHg 89%
    20:00 +12°C° 0.3 mm 7 mps 743 mmHg 91%
    21:00 +12°C° 0.3 mm 8 mps 743 mmHg 93%
    22:00 +13°C° 0.7 mm 8 mps 743 mmHg 93%
    23:00 +13°C° 0.7 mm 8 mps 742 mmHg 92%

    Pasado mañana, 25 Septiembre, Miércoles

    Tiempo Temperatura Precipitaciones Viento Presión Humedad
    00:00 +13°C° 0.7 mm 8 mps 742 mmHg 92%
    01:00 +13°C° 0.2 mm 9 mps 742 mmHg 92%
    02:00 +13°C° 0.2 mm 9 mps 742 mmHg 91%
    03:00 +13°C° 0.2 mm 9 mps 741 mmHg 91%
    04:00 +13°C° 0.2 mm 9 mps 741 mmHg 90%
    05:00 +13°C° 0.2 mm 9 mps 741 mmHg 90%
    06:00 +13°C° 0.2 mm 10 mps 742 mmHg 90%
    07:00 +13°C° 0 mm 9 mps 742 mmHg 89%
    08:00 +15°C° 0 mm 9 mps 743 mmHg 87%
    09:00 +15°C° 0 mm 8 mps 743 mmHg 86%
    10:00 +16°C° 0 mm 8 mps 744 mmHg 83%
    11:00 +16°C° 0 mm 7 mps 744 mmHg 81%
    12:00 +17°C° 0 mm 7 mps 745 mmHg 79%
    13:00 +17°C° 0.1 mm 7 mps 745 mmHg 80%
    14:00 +17°C° 0.1 mm 6 mps 745 mmHg 82%
    15:00 +17°C° 0.1 mm 6 mps 745 mmHg 83%
    16:00 +16°C° 0 mm 6 mps 745 mmHg 86%
    17:00 +16°C° 0 mm 5 mps 745 mmHg 89%
    18:00 +16°C° 0 mm 5 mps 745 mmHg 92%
    19:00 +16°C° 0.1 mm 6 mps 745 mmHg 93%
    20:00 +16°C° 0.1 mm 6 mps 745 mmHg 93%
    21:00 +16°C° 0.1 mm 7 mps 745 mmHg 94%
    22:00 +16°C° 0.1 mm 7 mps 744 mmHg 94%
    23:00 +16°C° 0.1 mm 7 mps 744 mmHg 93%

    26 Septiembre, Jueves

    Tiempo Temperatura Precipitaciones Viento Presión Humedad
    00:00 +16°C° 0.1 mm 8 mps 744 mmHg 92%
    01:00 +16°C° 0.7 mm 8 mps 744 mmHg 93%
    02:00 +16°C° 0.7 mm 8 mps 744 mmHg 94%
    03:00 +16°C° 0.7 mm 9 mps 744 mmHg 94%
    04:00 +15°C° 0.6 mm 8 mps 744 mmHg 94%
    05:00 +15°C° 0.6 mm 7 mps 744 mmHg 93%
    06:00 +15°C° 0.6 mm 6 mps 744 mmHg 93%
    07:00 +15°C° 0.1 mm 6 mps 744 mmHg 89%
    08:00 +15°C° 0.1 mm 6 mps 744 mmHg 85%
    09:00 +15°C° 0.1 mm 7 mps 745 mmHg 81%
    10:00 +16°C° 0.1 mm 7 mps 745 mmHg 78%
    11:00 +16°C° 0.1 mm 8 mps 745 mmHg 75%
    12:00 +17°C° 0.1 mm 9 mps 746 mmHg 71%
    13:00 +16°C° 0.2 mm 9 mps 746 mmHg 73%
    14:00 +16°C° 0.2 mm 9 mps 746 mmHg 76%
    15:00 +16°C° 0.2 mm 9 mps 746 mmHg 78%
    16:00 +15°C° 0.1 mm 8 mps 746 mmHg 79%
    17:00 +15°C° 0.1 mm 8 mps 746 mmHg 81%
    18:00 +14°C° 0.1 mm 7 mps 746 mmHg 83%
    19:00 +14°C° 0.1 mm 7 mps 746 mmHg 84%
    20:00 +13°C° 0.1 mm 6 mps 747 mmHg 86%
    21:00 +13°C° 0.1 mm 6 mps 747 mmHg 87%
    22:00 +13°C° 0.1 mm 6 mps 746 mmHg 86%
    23:00 +13°C° 0.1 mm 6 mps 746 mmHg 85%

    27 Septiembre, Viernes

    Tiempo Temperatura Precipitaciones Viento Presión Humedad
    00:00 +13°C° 0.1 mm 6 mps 746 mmHg 85%
    01:00 +13°C° 0 mm 6 mps 746 mmHg 85%
    02:00 +11°C° 0 mm 6 mps 746 mmHg 86%
    03:00 +11°C° 0 mm 6 mps 746 mmHg 87%
    04:00 +11°C° 0.1 mm 6 mps 746 mmHg 86%
    05:00 +11°C° 0.1 mm 7 mps 746 mmHg 84%
    06:00 +12°C° 0.1 mm 7 mps 746 mmHg 82%
    07:00 +12°C° 0.1 mm 7 mps 746 mmHg 81%
    08:00 +13°C° 0.1 mm 8 mps 746 mmHg 80%
    09:00 +13°C° 0.1 mm 8 mps 746 mmHg 79%
    10:00 +13°C° 0.1 mm 9 mps 746 mmHg 76%
    11:00 +15°C° 0.1 mm 9 mps 746 mmHg 73%
    12:00 +16°C° 0.1 mm 10 mps 746 mmHg 70%
    13:00 +14°C° 0.2 mm 10 mps 746 mmHg 71%
    14:00 +14°C° 0.2 mm 10 mps 746 mmHg 73%
    15:00 +13°C° 0.2 mm 9 mps 746 mmHg 75%
    16:00 +13°C° 0.1 mm 9 mps 745 mmHg 78%
    17:00 +12°C° 0.1 mm 9 mps 745 mmHg 80%
    18:00 +12°C° 0.1 mm 8 mps 745 mmHg 82%
    19:00 +12°C° 0.1 mm 8 mps 746 mmHg 83%
    20:00 +12°C° 0.1 mm 8 mps 746 mmHg 83%
    21:00 +12°C° 0.1 mm 8 mps 746 mmHg 84%
    22:00 +12°C° 0.1 mm 9 mps 746 mmHg 85%
    23:00 +12°C° 0.1 mm 9 mps 746 mmHg 86%

    28 Septiembre, Sábado

    Tiempo Temperatura Precipitaciones Viento Presión Humedad
    00:00 +12°C° 0.1 mm 9 mps 746 mmHg 86%
    01:00 +12°C° 0.2 mm 9 mps 746 mmHg 87%
    02:00 +12°C° 0.2 mm 8 mps 746 mmHg 87%
    03:00 +12°C° 0.2 mm 8 mps 746 mmHg 88%
    04:00 +12°C° 0.2 mm 8 mps 746 mmHg 88%
    05:00 +12°C° 0.2 mm 8 mps 747 mmHg 88%
    06:00 +12°C° 0.2 mm 8 mps 747 mmHg 88%
    07:00 +12°C° 0.4 mm 8 mps 747 mmHg 88%
    08:00 +12°C° 0.4 mm 8 mps 747 mmHg 88%
    09:00 +12°C° 0.4 mm 8 mps 748 mmHg 89%
    10:00 +13°C° 0.4 mm 8 mps 748 mmHg 86%
    11:00 +15°C° 0.4 mm 9 mps 748 mmHg 84%
    12:00 +15°C° 0.4 mm 9 mps 749 mmHg 81%
    13:00 +15°C° 0.2 mm 9 mps 749 mmHg 81%
    14:00 +15°C° 0.2 mm 9 mps 748 mmHg 80%
    15:00 +15°C° 0.2 mm 8 mps 748 mmHg 79%
    16:00 +13°C° 0.1 mm 8 mps 748 mmHg 82%
    17:00 +14°C° 0.1 mm 7 mps 748 mmHg 85%
    18:00 +13°C° 0.1 mm 6 mps 748 mmHg 87%
    19:00 +13°C° 0 mm 6 mps 749 mmHg 88%
    20:00 +11°C° 0 mm 6 mps 749 mmHg 89%
    21:00 +12°C° 0 mm 5 mps 749 mmHg 90%
    22:00 +12°C° 0.3 mm 5 mps 748 mmHg 91%
    23:00 +12°C° 0.3 mm 4 mps 747 mmHg 92%
    Mostrar más